Flag for Canada Weather past 2 weeks in Yarmouth County, Nova Scotia, Canada

48 °F

Passing clouds.

Feels Like: 45 °F
Forecast: N/A
Wind: 7 mph from West

Location: Yarmouth

Current Time: Oct 4, 2015 at 8:55:45 PM

Latest Report: Oct 4, 2015 at 8:00 PM

Visibility: 15 mi

Pressure: 30.34 "Hg

Humidity: 87%

Dew point: 45 °F

Location of Yarmouth CountyLocation

Historic Weather in Yarmouth County — Graph


Yarmouth County temperature yesterday

Maximum temperature yesterday: 55 °F (at 2:00 PM)
Minimum temperature yesterday: 43 °F (at 11:00 PM)
Average temperature yesterday: 50 °F

Past Weeks' High & Low Weather Summary

High72 °F (Sep 20, 12:45 PM)100% (Sep 20, 4:00 AM)30.51 "Hg (Sep 20, 4:00 AM)
Low36 °F (Oct 4, 7:00 AM)32% (Sep 26, 3:00 PM)29.79 "Hg (Oct 1, 2:00 AM)
Average57 °F83%30.23 "Hg
* Reported Sep 19 7:00 PM — Oct 4 7:00 PM, Yarmouth County, Weather by CustomWeather, © 2015

Note: Actual official high and low records may vary slightly from our data, if they occured in-between our weather recording intervals... More about our weather records


Yarmouth County weather history for previous 24 hours

Time TempWeatherWind HumidityBarometerVisibility
7:00 PM
Sun, Oct 4
52 °FScattered clouds.7 mph82%30.34 "Hg15 mi
6:00 PM59 °FScattered clouds.3 mph59%30.33 "Hg15 mi
5:00 PM61 °FPartly sunny.6 mph52%30.34 "Hg15 mi
4:00 PM61 °FPartly sunny.8 mph52%30.34 "Hg15 mi
3:00 PM61 °FPartly sunny.13 mph52%30.35 "Hg15 mi
2:00 PM61 °FPartly sunny.9 mph52%30.38 "Hg15 mi
1:00 PM59 °FPartly sunny.10 mph51%30.40 "Hg15 mi
12:00 PM55 °FPartly sunny.12 mph55%30.42 "Hg15 mi
11:00 AM54 °FPartly sunny.12 mph58%30.43 "Hg15 mi
10:00 AM48 °FScattered clouds.12 mph76%30.44 "Hg15 mi
9:00 AM45 °FScattered clouds.9 mph87%30.45 "Hg15 mi
8:00 AM36 °FPassing clouds.8 mph100%30.44 "Hg15 mi
7:00 AM36 °FPassing clouds.6 mph93%30.45 "Hg15 mi
6:00 AM37 °FClear.5 mph93%30.44 "Hg15 mi
5:00 AM39 °FClear.9 mph93%30.44 "Hg15 mi
4:00 AM41 °FClear.12 mph87%30.45 "Hg15 mi
3:00 AM41 °FClear.10 mph87%30.45 "Hg15 mi
2:00 AM43 °FClear.15 mph81%30.45 "Hg15 mi
1:00 AM43 °FClear.15 mph81%30.46 "Hg15 mi
12:00 AM43 °FClear.12 mph81%30.46 "Hg15 mi
11:00 PM
Sat, Oct 3
43 °FClear.12 mph87%30.47 "Hg15 mi
10:00 PM45 °FClear.13 mph81%30.46 "Hg15 mi
9:00 PM46 °FClear.14 mph82%30.45 "Hg15 mi
8:00 PM48 °FPassing clouds.13 mph76%30.43 "Hg15 mi
Weather by CustomWeather, © 2015

See weather overviewHow to use our weather pages